Hourly Weather Akureyri

Today, 30 October, Friday

Time Temperature Precipitation Wind Pressure Humidity
00:00 -2°C° 0 mm 1 mps 716 mmHg 92%
01:00 -2°C° 0 mm 1 mps 716 mmHg 92%
02:00 -2°C° 0 mm 1 mps 717 mmHg 92%
03:00 -2°C° 0 mm 1 mps 717 mmHg 92%
04:00 -2°C° 0 mm 1 mps 718 mmHg 92%
05:00 -3°C° 0 mm 1 mps 718 mmHg 92%
06:00 -3°C° 0 mm 1 mps 719 mmHg 92%
07:00 -3°C° 0 mm 1 mps 720 mmHg 92%
08:00 -3°C° 0 mm 1 mps 720 mmHg 90%
09:00 -2°C° 0 mm 1 mps 721 mmHg 89%
10:00 -1°C° 0 mm 1 mps 721 mmHg 87%
11:00 -1°C° 0 mm 1 mps 722 mmHg 86%
12:00 -1°C° 0 mm 1 mps 722 mmHg 86%
13:00 0°C° 0 mm 1 mps 723 mmHg 85%
14:00 -1°C° 0 mm 1 mps 723 mmHg 87%
15:00 -2°C° 0 mm 1 mps 723 mmHg 90%
16:00 -3°C° 0 mm 1 mps 723 mmHg 92%
17:00 -3°C° 0 mm 1 mps 723 mmHg 92%
18:00 -3°C° 0 mm 1 mps 723 mmHg 93%
19:00 -3°C° 0 mm 1 mps 723 mmHg 93%
20:00 -5°C° 0 mm 2 mps 724 mmHg 93%
21:00 -4°C° 0 mm 2 mps 724 mmHg 93%
22:00 -4°C° 0 mm 2 mps 724 mmHg 92%
23:00 -5°C° 0 mm 3 mps 724 mmHg 92%

Tomorrow, 31 October, Saturday

Time Temperature Precipitation Wind Pressure Humidity
00:00 -5°C° 0 mm 3 mps 724 mmHg 91%
01:00 -4°C° 0 mm 3 mps 724 mmHg 91%
02:00 -4°C° 0.1 mm 3 mps 723 mmHg 91%
03:00 -4°C° 0.1 mm 3 mps 723 mmHg 90%
04:00 -2°C° 0.1 mm 3 mps 723 mmHg 90%
05:00 -2°C° 0.5 mm 3 mps 723 mmHg 92%
06:00 -2°C° 0.5 mm 3 mps 723 mmHg 95%
07:00 -2°C° 0.5 mm 3 mps 723 mmHg 97%
08:00 -1°C° 0.2 mm 2 mps 723 mmHg 98%
09:00 +1°C° 0.2 mm 2 mps 724 mmHg 98%
10:00 +2°C° 0.2 mm 1 mps 724 mmHg 99%
11:00 +2°C° 0.1 mm 1 mps 724 mmHg 99%
12:00 +2°C° 0.1 mm 1 mps 724 mmHg 99%
13:00 +3°C° 0.1 mm 1 mps 724 mmHg 99%
14:00 +2°C° 0 mm 1 mps 724 mmHg 99%
15:00 +2°C° 0 mm 1 mps 724 mmHg 98%
16:00 +1°C° 0 mm 1 mps 724 mmHg 98%
17:00 +1°C° 0 mm 1 mps 724 mmHg 98%
18:00 +2°C° 0 mm 1 mps 724 mmHg 98%
19:00 +2°C° 0 mm 1 mps 724 mmHg 98%
20:00 +2°C° 0 mm 1 mps 723 mmHg 98%
21:00 +2°C° 0 mm 1 mps 723 mmHg 98%
22:00 +1°C° 0 mm 2 mps 722 mmHg 98%
23:00 +1°C° 0 mm 2 mps 722 mmHg 98%

Day after tomorrow, 1 November, Sunday

Time Temperature Precipitation Wind Pressure Humidity
00:00 +1°C° 0 mm 2 mps 722 mmHg 98%
01:00 +2°C° 0 mm 2 mps 721 mmHg 98%
02:00 +1°C° 0.1 mm 3 mps 721 mmHg 98%
03:00 +2°C° 0.1 mm 3 mps 720 mmHg 97%
04:00 +1°C° 0.1 mm 4 mps 719 mmHg 97%
05:00 +1°C° 0 mm 4 mps 719 mmHg 97%
06:00 +1°C° 0 mm 4 mps 718 mmHg 96%
07:00 +1°C° 0 mm 4 mps 718 mmHg 96%
08:00 +1°C° 0.1 mm 4 mps 717 mmHg 96%
09:00 +3°C° 0.1 mm 4 mps 717 mmHg 97%
10:00 +4°C° 0.1 mm 4 mps 716 mmHg 97%
11:00 +3°C° 0.1 mm 5 mps 715 mmHg 97%
12:00 +5°C° 0.1 mm 5 mps 714 mmHg 96%
13:00 +4°C° 0.1 mm 6 mps 714 mmHg 95%
14:00 +4°C° 0.2 mm 6 mps 713 mmHg 95%
15:00 +4°C° 0.2 mm 6 mps 713 mmHg 94%
16:00 +4°C° 0.2 mm 6 mps 712 mmHg 94%
17:00 +5°C° 0.5 mm 5 mps 712 mmHg 94%
18:00 +5°C° 0.5 mm 5 mps 711 mmHg 94%
19:00 +5°C° 0.5 mm 5 mps 711 mmHg 95%
20:00 +5°C° 0.5 mm 5 mps 710 mmHg 95%
21:00 +5°C° 0.5 mm 5 mps 709 mmHg 95%
22:00 +5°C° 0.5 mm 5 mps 709 mmHg 95%
23:00 +5°C° 0.9 mm 5 mps 708 mmHg 95%

2 November, Monday

Time Temperature Precipitation Wind Pressure Humidity
00:00 +5°C° 0.9 mm 5 mps 707 mmHg 94%
01:00 +5°C° 0.9 mm 5 mps 706 mmHg 94%
02:00 +5°C° 0.7 mm 5 mps 706 mmHg 94%
03:00 +5°C° 0.7 mm 5 mps 705 mmHg 94%
04:00 +5°C° 0.7 mm 5 mps 704 mmHg 94%
05:00 +5°C° 0.6 mm 5 mps 703 mmHg 94%
06:00 +5°C° 0.6 mm 5 mps 701 mmHg 94%
07:00 +5°C° 0.6 mm 5 mps 700 mmHg 94%
08:00 +4°C° 0.9 mm 6 mps 699 mmHg 93%
09:00 +4°C° 0.9 mm 6 mps 698 mmHg 93%
10:00 +3°C° 0.9 mm 7 mps 696 mmHg 92%
11:00 +3°C° 0.9 mm 7 mps 696 mmHg 92%
12:00 +3°C° 0.9 mm 7 mps 696 mmHg 92%
13:00 +2°C° 0.9 mm 6 mps 696 mmHg 92%
14:00 +2°C° 0.1 mm 6 mps 696 mmHg 90%
15:00 +2°C° 0.1 mm 5 mps 696 mmHg 89%
16:00 +3°C° 0.1 mm 4 mps 697 mmHg 87%
17:00 +3°C° 0.2 mm 4 mps 697 mmHg 89%
18:00 +3°C° 0.2 mm 4 mps 697 mmHg 91%
19:00 +3°C° 0.2 mm 4 mps 697 mmHg 93%
20:00 +1°C° 0 mm 4 mps 697 mmHg 93%
21:00 +2°C° 0 mm 3 mps 697 mmHg 93%
22:00 +2°C° 0 mm 3 mps 697 mmHg 92%
23:00 +2°C° 0 mm 3 mps 698 mmHg 91%

3 November, Tuesday

Time Temperature Precipitation Wind Pressure Humidity
00:00 +2°C° 0 mm 3 mps 698 mmHg 90%
01:00 +1°C° 0 mm 3 mps 699 mmHg 89%
02:00 0°C° 0 mm 4 mps 699 mmHg 88%
03:00 0°C° 0 mm 4 mps 699 mmHg 86%
04:00 0°C° 0 mm 4 mps 700 mmHg 85%
05:00 0°C° 0 mm 4 mps 700 mmHg 85%
06:00 -1°C° 0 mm 4 mps 701 mmHg 84%
07:00 -1°C° 0 mm 4 mps 701 mmHg 84%
08:00 -1°C° 0 mm 4 mps 701 mmHg 83%
09:00 0°C° 0 mm 5 mps 702 mmHg 82%
10:00 0°C° 0 mm 5 mps 702 mmHg 81%
11:00 0°C° 0 mm 5 mps 703 mmHg 80%
12:00 +1°C° 0 mm 5 mps 703 mmHg 78%
13:00 +1°C° 0 mm 6 mps 704 mmHg 77%
14:00 0°C° 0 mm 5 mps 704 mmHg 77%
15:00 0°C° 0 mm 5 mps 705 mmHg 78%
16:00 0°C° 0 mm 5 mps 706 mmHg 78%
17:00 0°C° 0 mm 5 mps 706 mmHg 78%
18:00 -1°C° 0 mm 5 mps 707 mmHg 77%
19:00 -1°C° 0 mm 5 mps 708 mmHg 77%
20:00 -1°C° 0 mm 5 mps 709 mmHg 77%
21:00 -1°C° 0 mm 5 mps 709 mmHg 78%
22:00 -2°C° 0 mm 5 mps 710 mmHg 79%
23:00 -2°C° 0 mm 5 mps 710 mmHg 80%

4 November, Wednesday

Time Temperature Precipitation Wind Pressure Humidity
00:00 -2°C° 0 mm 4 mps 711 mmHg 82%
01:00 -2°C° 0 mm 4 mps 711 mmHg 83%
02:00 -2°C° 0 mm 4 mps 711 mmHg 84%
03:00 -2°C° 0 mm 4 mps 712 mmHg 84%
04:00 -2°C° 0 mm 4 mps 712 mmHg 84%
05:00 -2°C° 0 mm 4 mps 712 mmHg 84%
06:00 -2°C° 0 mm 4 mps 712 mmHg 84%
07:00 -2°C° 0 mm 4 mps 712 mmHg 85%
08:00 -2°C° 0 mm 5 mps 712 mmHg 81%
09:00 -1°C° 0 mm 5 mps 712 mmHg 78%
10:00 -1°C° 0 mm 5 mps 712 mmHg 75%
11:00 -1°C° 0 mm 5 mps 712 mmHg 76%
12:00 -1°C° 0 mm 5 mps 712 mmHg 78%
13:00 0°C° 0 mm 5 mps 712 mmHg 79%
14:00 -1°C° 0 mm 4 mps 712 mmHg 83%
15:00 -1°C° 0 mm 4 mps 712 mmHg 87%
16:00 0°C° 0 mm 3 mps 712 mmHg 90%
17:00 0°C° 0 mm 3 mps 712 mmHg 88%
18:00 -1°C° 0 mm 4 mps 713 mmHg 86%
19:00 -1°C° 0 mm 4 mps 713 mmHg 84%
20:00 0°C° 0 mm 4 mps 714 mmHg 82%
21:00 0°C° 0 mm 5 mps 715 mmHg 80%
22:00 0°C° 0 mm 5 mps 716 mmHg 78%
23:00 -1°C° 0 mm 5 mps 716 mmHg 78%
Show more

We Need Your Consent

Meteoprog and our Service Providers may store and access personal data such as cookies, device identifiers or other similar technologies on your device and process such data to personalise content and ads, as well as provide social media features and to analyse the traffic.

  • Store and/or access information on your device

    Cookies, device identifiers or other information can be stored or accessed on your device for the purposes indicated above.

  • Personalised ads and content, ad and content measurement, audience insights, and products development

    Ads and content can be personalised based on a profile. More data can be added to better personalise ads and content. Ad and content performance can be measured. Insights about the audience who saw the ads and content can be derived. Such data can be used to develop or improve user’s experience, systems and software.

By clicking ‘I Agree’ you will allow the use of indicated cookies, device identifiers, web beacons or other similar technologies. Your settings can be changed in the browser on your device.

For certain purposes, legitimate interests may be relied on, rather than consent. You can read more about this in our Privacy and Cookie Policy.